Plymouth, MA

8:05 AM EDT on April 30, 2017 (GMT -0400)
Plymouth Municipal

Weather History for KPYM - March, 2014

Change the Weather History Date:

Wednesday, March 19, 2014

  Actual Average Record
Temperature  
Mean Temperature 32 °F -  
Max Temperature 45 °F 44 °F 79 °F (2012)
Min Temperature 18 °F 25 °F -5 °F (1967)
Degree Days  
Heating Degree Days 34    
Moisture  
Dew Point 22 °F    
Average Humidity 68    
Maximum Humidity 82    
Minimum Humidity 46    
Precipitation  
Precipitation 0.00 in - - ()
Sea Level Pressure  
Sea Level Pressure 30.23 in    
Wind  
Wind Speed 3 mph (ESE)    
Max Wind Speed 13 mph    
Max Gust Speed -    
Visibility 10 miles    
Events      
Averages and records for this station are not official NWS values.
T = Trace of Precipitation, MM = Missing Value Source: NWS Daily Summary

Daily Weather History Graph

Daily Weather History Graph

Search for Another Location

Airport or City:

Trip Planner

Search our weather history database for the weather conditions in past years. The results will help you decide how hot, cold, wet, or windy it might be!

Date:

Astronomy

Mar. 19, 2014 Rise Set
Actual Time 6:47 AM EDT 6:53 PM EDT
Civil Twilight 6:20 AM EDT 7:21 PM EDT
Nautical Twilight 5:47 AM EDT 7:54 PM EDT
Astronomical Twilight 5:14 AM EDT 8:27 PM EDT
Moon 10:12 PM EDT (3/19) 8:08 AM EDT (3/19)
Length of Visible Light 13h 01m
Length of Day
12h 05m
Waning Gibbous, 91% of the Moon is Illuminated
Mar 19
Waning Gibbous
Mar 23
Last Quarter
Mar 30
New
Apr 7
First Quarter
Apr 15
Full

Hourly Weather History & Observations

Time (EDT) Temp. Windchill Dew Point Humidity Pressure Visibility Wind Dir Wind Speed Gust Speed Precip Events Conditions
12:52 AM 19.9 °F - 15.1 °F 81% 30.33 in 10.0 mi Calm Calm - N/A   Clear
1:52 AM 19.0 °F - 12.9 °F 77% 30.33 in 10.0 mi Calm Calm - N/A   Clear
2:52 AM 19.0 °F - 12.9 °F 77% 30.32 in 10.0 mi Calm Calm - N/A   Clear
3:52 AM 19.0 °F - 12.9 °F 77% 30.31 in 10.0 mi Calm Calm - N/A   Clear
4:52 AM 18.0 °F - 12.9 °F 81% 30.32 in 10.0 mi Calm Calm - N/A   Clear
5:52 AM 18.0 °F - 12.9 °F 81% 30.34 in 10.0 mi Calm Calm - N/A   Clear
6:52 AM 18.0 °F - 12.9 °F 81% 30.36 in 10.0 mi Calm Calm - N/A   Clear
7:52 AM 24.1 °F - 19.0 °F 81% 30.39 in 10.0 mi Calm Calm - N/A   Clear
8:52 AM 33.1 °F - 24.1 °F 70% 30.37 in 10.0 mi Calm Calm - N/A   Clear
9:52 AM 37.9 °F 30.9 °F 23.0 °F 55% 30.37 in 10.0 mi East 10.4 mph - N/A   Clear
10:52 AM 39.9 °F 32.9 °F 24.1 °F 53% 30.34 in 10.0 mi East 11.5 mph - N/A   Clear
11:52 AM 41.0 °F 35.2 °F 25.0 °F 53% 30.33 in 10.0 mi SSE 9.2 mph - N/A   Clear
12:52 PM 43.0 °F 36.8 °F 25.0 °F 49% 30.30 in 10.0 mi ESE 11.5 mph - N/A   Clear
1:52 PM 45.0 °F 39.3 °F 25.0 °F 46% 30.27 in 10.0 mi ESE 11.5 mph - N/A   Overcast
2:52 PM 42.1 °F 35.7 °F 25.0 °F 51% 30.25 in 10.0 mi ESE 11.5 mph - N/A   Overcast
3:52 PM 42.1 °F 35.7 °F 24.1 °F 49% 30.23 in 10.0 mi East 11.5 mph - N/A   Overcast
4:52 PM 39.9 °F 32.5 °F 23.0 °F 51% 30.21 in 10.0 mi ESE 12.7 mph - N/A   Overcast
5:52 PM 39.0 °F 31.4 °F 23.0 °F 53% 30.18 in 10.0 mi ESE 12.7 mph - N/A   Overcast
6:52 PM 36.0 °F 32.1 °F 23.0 °F 59% 30.17 in 10.0 mi ESE 4.6 mph - N/A   Scattered Clouds
7:52 PM 32.0 °F 28.7 °F 21.0 °F 64% 30.14 in 10.0 mi East 3.5 mph - N/A   Clear
8:52 PM 33.1 °F - 24.1 °F 70% 30.12 in 10.0 mi Calm Calm - N/A   Partly Cloudy
9:52 PM 33.1 °F 28.7 °F 27.0 °F 78% 30.07 in 10.0 mi East 4.6 mph - N/A   Overcast
10:48 PM 32.0 °F 28.7 °F 26.6 °F 80% 30.05 in 10.0 mi East 3.5 mph - N/A   Mostly Cloudy
10:52 PM 30.9 °F 27.5 °F 26.1 °F 82% 30.05 in 10.0 mi East 3.5 mph - N/A   Mostly Cloudy
11:02 PM 32.0 °F - 26.1 °F 79% 30.04 in 10.0 mi Calm Calm - N/A   Overcast
11:41 PM 35.1 °F 27.9 °F 30.0 °F 82% 29.97 in 10.0 mi East 9.2 mph - N/A   Mostly Cloudy
11:52 PM 35.1 °F 32.2 °F 30.0 °F 82% 30.00 in 10.0 mi Variable 3.5 mph - N/A   Mostly Cloudy